Location: Bakov nad Jizerou
(50.4784°N, 14.9394°E)
Time: 09:27:34
(UTC+00:00)

Cosmos 1470 - Pass Details

Date: 16 June 2021
Orbit: 519 x 543 km, 82.5° (Epoch: 04 August)

Event Time Altitude Azimuth Distance (km) Brightness Sun altitude
Rises 20:07:04 0° 343° (NNW) 2,720 7.9 -6.8°
Reaches altitude 10° 20:09:21 10° 335° (NNW) 1,821 7.0 -7.0°
Maximum altitude 20:13:02 36° 268° (W) 871 4.2 -7.3°
Drops below altitude 10° 20:16:40 10° 201° (SSW) 1,798 5.1 -7.7°
Sets 20:18:55 0° 193° (SSW) 2,681 5.9 -7.9°
